Location: Beddau
(51.5575°N, 3.3561°W)
Time: 16:41:53
(UTC+00:00)

CSL-04 Rocket - Pass Details

Date: 03 March 2021
Orbit: 805 x 861 km, 98.9° (Epoch: 13 April)

Event Time Altitude Azimuth Distance (km) Brightness Sun altitude
Rises 18:23:39 0° 140° (SE) 3,427 6.5 -4.9°
Reaches altitude 10° 18:26:07 10° 134° (SE) 2,492 5.8 -5.2°
Maximum altitude 18:31:19 44° 64° (ENE) 1,173 4.1 -6.0°
Drops below altitude 10° 18:36:31 10° 355° (N) 2,483 6.2 -6.8°
Sets 18:38:58 0° 349° (NNW) 3,414 7.0 -7.2°
